Location: Brompton
(51.4000°N, 0.5333°E)
Time: 09:55:25
(UTC+00:00)

Cosmos 1898 Rocket - Pass Details

Date: 25 September 2021
Orbit: 752 x 784 km, 74.0° (Epoch: 17 October)

Event Time Altitude Azimuth Distance (km) Brightness Sun altitude
Exits shadow 19:47:31 16° 57° (ENE) 1,927 5.3 -18.9°
Drops below altitude 10° 19:48:51 10° 46° (NE) 2,315 5.8 -19.1°
Sets 19:51:36 0° 33° (NNE) 3,252 6.7 -19.5°
